| time (UTC) | temp F | wind direction | speed MPH | gust MPH | rain 1hr in | rain 24hr in | rain mn in | humidity % | barometer mb |
| 20260503040934 | 45 | 247 | 0.0 | 0.0 | 0.00 | 0.00 | 0.00 | 79 | 1019.7 |
| 20260503040432 | 45 | 247 | 0.0 | 0.0 | 0.00 | 0.00 | 0.00 | 78 | 1019.7 |
| 20260503035933 | 45 | 247 | 0.0 | 0.0 | 0.00 | 0.00 | 0.00 | 77 | 1019.7 |
| 20260503035851 | 46 | 247 | 0.0 | 0.0 | 0.00 | 0.00 | 0.00 | 77 | 1019.8 |
| 20260503034845 | 46 | 247 | 0.0 | 0.0 | 0.00 | 0.00 | 0.00 | 76 | 1019.8 |
| 20260503034326 | 46 | 247 | 0.0 | 0.0 | 0.00 | 0.00 | 0.00 | 76 | 1019.8 |
| 20260503034247 | 46 | 247 | 0.0 | 0.0 | 0.00 | 0.00 | 0.00 | 75 | 1019.9 |
| 20260503033236 | 47 | 247 | 0.0 | 0.0 | 0.00 | 0.00 | 0.00 | 74 | 1019.8 |
| 20260503032713 | 47 | 247 | 0.0 | 0.0 | 0.00 | 0.00 | 0.00 | 73 | 1019.8 |
| 20260503032148 | 47 | 247 | 0.0 | 0.0 | 0.00 | 0.00 | 0.00 | 72 | 1019.8 |
| 20260503031626 | 48 | 247 | 0.0 | 0.0 | 0.00 | 0.00 | 0.00 | 72 | 1019.8 |
| 20260503031104 | 48 | 247 | 0.0 | 0.0 | 0.00 | 0.00 | 0.00 | 73 | 1019.7 |
| 20260503030536 | 49 | 247 | 0.0 | 0.0 | 0.00 | 0.00 | 0.00 | 71 | 1019.6 |
| 20260503030020 | 49 | 247 | 0.0 | 0.0 | 0.00 | 0.00 | 0.00 | 70 | 1019.6 |
| 20260503025523 | 49 | 247 | 0.0 | 0.0 | 0.00 | 0.00 | 0.00 | 69 | 1019.6 |
| 20260503025017 | 50 | 247 | 0.0 | 0.0 | 0.00 | 0.00 | 0.00 | 68 | 1019.5 |
| 20260503024515 | 50 | 247 | 0.0 | 0.0 | 0.00 | 0.00 | 0.00 | 68 | 1019.4 |
| 20260503024011 | 51 | 247 | 0.0 | 0.0 | 0.00 | 0.00 | 0.00 | 67 | 1019.5 |
| 20260503023927 | 51 | 247 | 0.0 | 0.0 | 0.00 | 0.00 | 0.00 | 66 | 1019.4 |
| 20260503022942 | 51 | 247 | 0.0 | 0.0 | 0.00 | 0.00 | 0.00 | 65 | 1019.5 |
| 20260503022415 | 52 | 247 | 0.0 | 0.0 | 0.00 | 0.00 | 0.00 | 63 | 1019.4 |
| 20260503021914 | 53 | 247 | 0.0 | 0.0 | 0.00 | 0.00 | 0.00 | 62 | 1019.4 |
| 20260503021348 | 53 | 247 | 0.0 | 0.0 | 0.00 | 0.00 | 0.00 | 61 | 1019.3 |
| 20260503020823 | 54 | 247 | 0.0 | 0.0 | 0.00 | 0.00 | 0.00 | 60 | 1019.2 |
| 20260503020801 | 55 | 247 | 0.0 | 0.0 | 0.00 | 0.00 | 0.00 | 59 | 1019.2 |
| 20260503015812 | 55 | 247 | 0.0 | 0.0 | 0.00 | 0.00 | 0.00 | 58 | 1019.2 |
| 20260503015246 | 56 | 247 | 0.0 | 0.0 | 0.00 | 0.00 | 0.00 | 57 | 1019.1 |
| 20260503014718 | 56 | 247 | 0.0 | 2.0 | 0.00 | 0.00 | 0.00 | 56 | 1019.2 |
| 20260503014636 | 56 | 247 | 0.0 | 3.0 | 0.00 | 0.00 | 0.00 | 56 | 1019.1 |
| 20260503013638 | 57 | 252 | 0.0 | 3.0 | 0.00 | 0.00 | 0.00 | 56 | 1019.0 |
| 20260503013137 | 57 | 260 | 0.0 | 2.0 | 0.00 | 0.00 | 0.00 | 56 | 1019.0 |
| 20260503012630 | 57 | 252 | 0.0 | 1.0 | 0.00 | 0.00 | 0.00 | 56 | 1019.0 |
| 20260503012614 | 57 | 252 | 0.0 | 0.0 | 0.00 | 0.00 | 0.00 | 55 | 1018.8 |
| 20260503011616 | 58 | 252 | 0.0 | 1.0 | 0.00 | 0.00 | 0.00 | 55 | 1018.8 |
| 20260503011118 | 58 | 252 | 0.0 | 1.0 | 0.00 | 0.00 | 0.00 | 55 | 1018.8 |
| 20260503011058 | 59 | 252 | 0.0 | 1.0 | 0.00 | 0.00 | 0.00 | 53 | 1018.7 |
| 20260503010048 | 60 | 253 | 0.0 | 1.0 | 0.00 | 0.00 | 0.00 | 52 | 1018.8 |
| 20260503005520 | 61 | 248 | 0.0 | 2.0 | 0.00 | 0.00 | 0.00 | 51 | 1018.7 |
| 20260503005017 | 62 | 248 | 0.0 | 3.0 | 0.00 | 0.00 | 0.00 | 48 | 1018.7 |
| 20260503004514 | 63 | 247 | 0.0 | 3.0 | 0.00 | 0.00 | 0.00 | 47 | 1018.8 |
| 20260503004448 | 63 | 248 | 1.0 | 3.0 | 0.00 | 0.00 | 0.00 | 48 | 1018.7 |
| 20260503003926 | 64 | 246 | 2.0 | 5.0 | 0.00 | 0.00 | 0.00 | 47 | 1018.6 |
| 20260503002941 | 64 | 250 | 3.0 | 7.0 | 0.00 | 0.00 | 0.00 | 46 | 1018.7 |
| 20260503002440 | 65 | 259 | 2.0 | 7.0 | 0.00 | 0.00 | 0.00 | 44 | 1018.7 |
| 20260503001938 | 65 | 265 | 2.0 | 7.0 | 0.00 | 0.00 | 0.00 | 42 | 1018.7 |
| 20260503001436 | 65 | 255 | 2.0 | 5.0 | 0.00 | 0.00 | 0.00 | 41 | 1018.7 |
| 20260503000914 | 65 | 258 | 2.0 | 7.0 | 0.00 | 0.00 | 0.00 | 44 | 1018.7 |
| 20260503000341 | 65 | 242 | 4.0 | 10.0 | 0.00 | 0.00 | 0.00 | 42 | 1018.7 |
| 20260503000321 | 65 | 255 | 4.0 | 10.0 | 0.00 | 0.00 | 0.00 | 42 | 1018.7 |
| 20260502235311 | 65 | 269 | 5.0 | 8.0 | 0.00 | 0.00 | 0.00 | 41 | 1018.7 |
| 20260502235300 | 66 | 261 | 4.0 | 8.0 | 0.00 | 0.00 | 0.00 | 41 | 1018.7 |
| 20260502234304 | 66 | 236 | 3.0 | 8.0 | 0.00 | 0.00 | 0.00 | 40 | 1018.7 |
| 20260502233802 | 67 | 179 | 2.0 | 6.0 | 0.00 | 0.00 | 0.00 | 40 | 1018.6 |
| 20260502233727 | 67 | 245 | 2.0 | 6.0 | 0.00 | 0.00 | 0.00 | 40 | 1018.7 |
| 20260502233204 | 67 | 282 | 2.0 | 7.0 | 0.00 | 0.00 | 0.00 | 42 | 1018.7 |
| 20260502232657 | 66 | 303 | 4.0 | 8.0 | 0.00 | 0.00 | 0.00 | 44 | 1018.7 |
| 20260502231706 | 66 | 246 | 4.0 | 8.0 | 0.00 | 0.00 | 0.00 | 42 | 1018.7 |
| 20260502231204 | 66 | 248 | 3.0 | 8.0 | 0.00 | 0.00 | 0.00 | 41 | 1018.8 |
| 20260502230157 | 67 | 266 | 4.0 | 10.0 | 0.00 | 0.00 | 0.00 | 41 | 1018.9 |
| 20260502225653 | 67 | 292 | 4.0 | 10.0 | 0.00 | 0.00 | 0.00 | 40 | 1018.8 |
| 20260502225127 | 67 | 255 | 2.0 | 8.0 | 0.00 | 0.00 | 0.00 | 39 | 1018.7 |
| 20260502224624 | 67 | 206 | 2.0 | 9.0 | 0.00 | 0.00 | 0.00 | 40 | 1018.8 |
| 20260502224122 | 66 | 260 | 5.0 | 10.0 | 0.00 | 0.00 | 0.00 | 40 | 1018.8 |
| 20260502223611 | 66 | 314 | 6.0 | 12.0 | 0.00 | 0.00 | 0.00 | 41 | 1018.8 |
| 20260502223113 | 66 | 256 | 5.0 | 12.0 | 0.00 | 0.00 | 0.00 | 39 | 1018.8 |
| 20260502223037 | 66 | 179 | 5.0 | 13.0 | 0.00 | 0.00 | 0.00 | 43 | 1018.8 |
| 20260502222021 | 66 | 262 | 5.0 | 13.0 | 0.00 | 0.00 | 0.00 | 42 | 1018.7 |
| 20260502222010 | 67 | 266 | 4.0 | 9.0 | 0.00 | 0.00 | 0.00 | 41 | 1018.7 |
| 20260502221003 | 66 | 251 | 4.0 | 10.0 | 0.00 | 0.00 | 0.00 | 42 | 1018.7 |
| 20260502220503 | 67 | 250 | 4.0 | 10.0 | 0.00 | 0.00 | 0.00 | 39 | 1018.9 |
| 20260502220000 | 67 | 269 | 5.0 | 11.0 | 0.00 | 0.00 | 0.00 | 42 | 1018.8 |
| 20260502215433 | 66 | 276 | 5.0 | 11.0 | 0.00 | 0.00 | 0.00 | 40 | 1018.9 |
| 20260502214908 | 66 | 264 | 5.0 | 10.0 | 0.00 | 0.00 | 0.00 | 38 | 1019.0 |
| 20260502214404 | 66 | 252 | 4.0 | 10.0 | 0.00 | 0.00 | 0.00 | 40 | 1018.9 |
| 20260502213901 | 66 | 257 | 4.0 | 9.0 | 0.00 | 0.00 | 0.00 | 39 | 1018.9 |
| 20260502213358 | 66 | 248 | 5.0 | 12.0 | 0.00 | 0.00 | 0.00 | 39 | 1019.0 |
| 20260502213311 | 67 | 61 | 4.0 | 12.0 | 0.00 | 0.00 | 0.00 | 39 | 1019.0 |
| 20260502212305 | 67 | 259 | 4.0 | 9.0 | 0.00 | 0.00 | 0.00 | 41 | 1019.1 |
| 20260502211802 | 66 | 271 | 5.0 | 11.0 | 0.00 | 0.00 | 0.00 | 40 | 1019.0 |
| 20260502211234 | 67 | 270 | 5.0 | 16.0 | 0.00 | 0.00 | 0.00 | 42 | 1019.1 |
| 20260502210721 | 67 | 270 | 5.0 | 16.0 | 0.00 | 0.00 | 0.00 | 39 | 1019.0 |
| 20260502210222 | 67 | 240 | 5.0 | 13.0 | 0.00 | 0.00 | 0.00 | 44 | 1019.3 |
| 20260502210210 | 66 | 276 | 6.0 | 13.0 | 0.00 | 0.00 | 0.00 | 44 | 1019.2 |
| 20260502205214 | 66 | 224 | 6.0 | 14.0 | 0.00 | 0.00 | 0.00 | 41 | 1019.2 |
| 20260502204649 | 67 | 252 | 6.0 | 14.0 | 0.00 | 0.00 | 0.00 | 42 | 1019.4 |
| 20260502204120 | 67 | 266 | 5.0 | 14.0 | 0.00 | 0.00 | 0.00 | 39 | 1019.4 |
| 20260502204106 | 67 | 225 | 4.0 | 14.0 | 0.00 | 0.00 | 0.00 | 44 | 1019.4 |
| 20260502203111 | 67 | 272 | 4.0 | 13.0 | 0.00 | 0.00 | 0.00 | 37 | 1019.4 |
| 20260502202545 | 67 | 259 | 4.0 | 8.0 | 0.00 | 0.00 | 0.00 | 42 | 1019.4 |
| 20260502202042 | 67 | 290 | 4.0 | 9.0 | 0.00 | 0.00 | 0.00 | 45 | 1019.4 |
| 20260502201540 | 67 | 267 | 5.0 | 12.0 | 0.00 | 0.00 | 0.00 | 43 | 1019.5 |
| 20260502201012 | 67 | 237 | 6.0 | 12.0 | 0.00 | 0.00 | 0.00 | 41 | 1019.5 |
| 20260502200443 | 67 | 245 | 6.0 | 15.0 | 0.00 | 0.00 | 0.00 | 41 | 1019.5 |
| 20260502195942 | 67 | 237 | 4.0 | 15.0 | 0.00 | 0.00 | 0.00 | 41 | 1019.5 |
| 20260502195436 | 67 | 242 | 4.0 | 14.0 | 0.00 | 0.00 | 0.00 | 43 | 1019.4 |
| 20260502194935 | 66 | 245 | 6.0 | 14.0 | 0.00 | 0.00 | 0.00 | 40 | 1019.5 |
| 20260502194842 | 66 | 245 | 6.0 | 12.0 | 0.00 | 0.00 | 0.00 | 42 | 1019.6 |
| 20260502193903 | 66 | 204 | 6.0 | 12.0 | 0.00 | 0.00 | 0.00 | 45 | 1019.5 |
| 20260502193345 | 67 | 268 | 5.0 | 11.0 | 0.00 | 0.00 | 0.00 | 41 | 1019.6 |
| 20260502193336 | 67 | 285 | 5.0 | 11.0 | 0.00 | 0.00 | 0.00 | 43 | 1019.5 |
| 20260502192345 | 67 | 252 | 5.0 | 11.0 | 0.00 | 0.00 | 0.00 | 43 | 1019.6 |
| 20260502191847 | 66 | 214 | 5.0 | 11.0 | 0.00 | 0.00 | 0.00 | 46 | 1019.5 |
| 20260502191320 | 66 | 257 | 4.0 | 13.0 | 0.00 | 0.00 | 0.00 | 45 | 1019.6 |
| 20260502190818 | 66 | 267 | 6.0 | 13.0 | 0.00 | 0.00 | 0.00 | 41 | 1019.6 |
| 20260502190252 | 66 | 254 | 7.0 | 13.0 | 0.00 | 0.00 | 0.00 | 48 | 1019.5 |
| 20260502185725 | 66 | 248 | 7.0 | 13.0 | 0.00 | 0.00 | 0.00 | 42 | 1019.6 |
| 20260502185222 | 66 | 272 | 4.0 | 13.0 | 0.00 | 0.00 | 0.00 | 44 | 1019.6 |
| 20260502184714 | 66 | 260 | 4.0 | 13.0 | 0.00 | 0.00 | 0.00 | 47 | 1019.6 |
| 20260502184210 | 66 | 134 | 5.0 | 13.0 | 0.00 | 0.00 | 0.00 | 44 | 1019.8 |
| 20260502184142 | 66 | 154 | 4.0 | 10.0 | 0.00 | 0.00 | 0.00 | 44 | 1019.7 |
| 20260502183156 | 66 | 229 | 4.0 | 10.0 | 0.00 | 0.00 | 0.00 | 44 | 1019.8 |
| 20260502182656 | 66 | 259 | 5.0 | 10.0 | 0.00 | 0.00 | 0.00 | 43 | 1019.8 |
| 20260502182155 | 65 | 223 | 5.0 | 11.0 | 0.00 | 0.00 | 0.00 | 44 | 1020.1 |
| 20260502181652 | 65 | 266 | 5.0 | 12.0 | 0.00 | 0.00 | 0.00 | 45 | 1020.1 |
| 20260502181126 | 65 | 266 | 5.0 | 12.0 | 0.00 | 0.00 | 0.00 | 46 | 1020.1 |
| 20260502180612 | 65 | 236 | 6.0 | 14.0 | 0.00 | 0.00 | 0.00 | 45 | 1020.2 |
| 20260502170236 | 64 | 198 | 6.0 | 12.0 | 0.00 | 0.00 | 0.00 | 47 | 1020.7 |
| 20260502164110 | 64 | 248 | 5.0 | 14.0 | 0.00 | 0.00 | 0.00 | 48 | 1020.9 |
| 20260502163608 | 64 | 266 | 5.0 | 12.0 | 0.00 | 0.00 | 0.00 | 45 | 1020.7 |
| 20260502163039 | 64 | 212 | 3.0 | 10.0 | 0.00 | 0.00 | 0.00 | 45 | 1020.7 |
| 20260502162514 | 64 | 246 | 3.0 | 8.0 | 0.00 | 0.00 | 0.00 | 45 | 1020.7 |
| 20260502161946 | 64 | 179 | 3.0 | 11.0 | 0.00 | 0.00 | 0.00 | 45 | 1020.7 |
| 20260502161443 | 63 | 110 | 4.0 | 13.0 | 0.00 | 0.00 | 0.00 | 46 | 1020.7 |
| 20260502160916 | 64 | 108 | 3.0 | 10.0 | 0.00 | 0.00 | 0.00 | 44 | 1020.7 |
| 20260502160414 | 64 | 262 | 3.0 | 10.0 | 0.00 | 0.00 | 0.00 | 43 | 1020.7 |
| 20260502152154 | 62 | 159 | 2.0 | 9.0 | 0.00 | 0.00 | 0.00 | 47 | 1020.6 |
| 20260502151632 | 61 | 212 | 3.0 | 9.0 | 0.00 | 0.00 | 0.00 | 47 | 1020.5 |
| 20260502151114 | 61 | 149 | 4.0 | 9.0 | 0.00 | 0.00 | 0.00 | 48 | 1020.6 |
| 20260502150616 | 61 | 208 | 3.0 | 8.0 | 0.00 | 0.00 | 0.00 | 46 | 1020.7 |
| 20260502150103 | 61 | 199 | 3.0 | 10.0 | 0.00 | 0.00 | 0.00 | 48 | 1020.8 |
| 20260502130122 | 53 | 214 | 1.0 | 5.0 | 0.00 | 0.00 | 0.00 | 76 | 1019.8 |
| 20260502123036 | 51 | 256 | 1.0 | 4.0 | 0.00 | 0.00 | 0.00 | 79 | 1019.5 |
| 20260502123031 | 51 | 262 | 2.0 | 4.0 | 0.00 | 0.00 | 0.00 | 78 | 1019.4 |
| 20260502122006 | 51 | 240 | 2.0 | 4.0 | 0.00 | 0.00 | 0.00 | 78 | 1019.4 |
| 20260502121507 | 51 | 260 | 1.0 | 4.0 | 0.00 | 0.00 | 0.00 | 79 | 1019.4 |
| 20260502120950 | 51 | 294 | 1.0 | 3.0 | 0.00 | 0.00 | 0.00 | 80 | 1019.4 |
| 20260502120931 | 50 | 250 | 1.0 | 3.0 | 0.00 | 0.00 | 0.00 | 80 | 1019.3 |
| 20260502115925 | 50 | 262 | 1.0 | 3.0 | 0.00 | 0.00 | 0.00 | 80 | 1019.3 |
| 20260502115422 | 49 | 254 | 1.0 | 2.0 | 0.00 | 0.00 | 0.00 | 81 | 1019.3 |
| 20260502114855 | 49 | 264 | 1.0 | 3.0 | 0.00 | 0.00 | 0.00 | 81 | 1019.2 |
| 20260502114352 | 49 | 257 | 2.0 | 3.0 | 0.00 | 0.00 | 0.00 | 82 | 1019.2 |
| 20260502114309 | 48 | 254 | 2.0 | 6.0 | 0.00 | 0.00 | 0.00 | 82 | 1019.0 |
| 20260502113742 | 48 | 278 | 2.0 | 6.0 | 0.00 | 0.00 | 0.00 | 82 | 1019.0 |
| 20260502112752 | 48 | 288 | 1.0 | 3.0 | 0.00 | 0.00 | 0.00 | 83 | 1019.0 |
| 20260502112250 | 47 | 265 | 0.0 | 2.0 | 0.00 | 0.00 | 0.00 | 84 | 1019.0 |
| 20260502111721 | 47 | 246 | 0.0 | 1.0 | 0.00 | 0.00 | 0.00 | 85 | 1018.9 |
| 20260502111218 | 47 | 255 | 0.0 | 1.0 | 0.00 | 0.00 | 0.00 | 85 | 1018.8 |
| 20260502110653 | 47 | 256 | 0.0 | 1.0 | 0.00 | 0.00 | 0.00 | 86 | 1018.8 |
| 20260502110127 | 46 | 248 | 0.0 | 1.0 | 0.00 | 0.00 | 0.00 | 88 | 1018.8 |
| 20260502105622 | 46 | 248 | 0.0 | 1.0 | 0.00 | 0.00 | 0.00 | 89 | 1018.8 |
| 20260502105058 | 45 | 252 | 0.0 | 1.0 | 0.00 | 0.00 | 0.00 | 90 | 1018.7 |
| 20260502104553 | 45 | 252 | 0.0 | 1.0 | 0.00 | 0.00 | 0.00 | 91 | 1018.8 |
| 20260502104052 | 45 | 252 | 0.0 | 1.0 | 0.00 | 0.00 | 0.00 | 92 | 1018.7 |
| 20260502103541 | 44 | 252 | 0.0 | 0.0 | 0.00 | 0.00 | 0.00 | 92 | 1018.7 |
| 20260502103038 | 44 | 252 | 0.0 | 0.0 | 0.00 | 0.00 | 0.00 | 92 | 1018.6 |
| 20260502102514 | 44 | 252 | 0.0 | 0.0 | 0.00 | 0.00 | 0.00 | 93 | 1018.6 |
| 20260502101945 | 44 | 252 | 0.0 | 1.0 | 0.00 | 0.00 | 0.00 | 93 | 1018.6 |
| 20260502101441 | 44 | 252 | 0.0 | 2.0 | 0.00 | 0.00 | 0.00 | 93 | 1018.6 |
| 20260502100919 | 44 | 252 | 0.0 | 2.0 | 0.00 | 0.00 | 0.00 | 93 | 1018.6 |
| 20260502100904 | 43 | 89 | 0.0 | 0.0 | 0.00 | 0.00 | 0.00 | 93 | 1018.6 |
| 20260502100347 | 43 | 89 | 0.0 | 0.0 | 0.00 | 0.00 | 0.00 | 92 | 1018.5 |
| 20260502091217 | 44 | 89 | 0.0 | 0.0 | 0.00 | 0.00 | 0.00 | 92 | 1018.2 |
| 20260502090206 | 44 | 89 | 0.0 | 0.0 | 0.00 | 0.00 | 0.00 | 92 | 1018.1 |
| 20260502071128 | 42 | 89 | 0.0 | 0.0 | 0.00 | 0.00 | 0.00 | 89 | 1018.2 |
| 20260502070626 | 42 | 89 | 0.0 | 0.0 | 0.00 | 0.00 | 0.00 | 90 | 1018.2 |
| 20260502070058 | 42 | 89 | 0.0 | 0.0 | 0.00 | 0.00 | 0.00 | 89 | 1018.2 |
| 20260502065554 | 42 | 89 | 0.0 | 0.0 | 0.00 | 0.00 | 0.00 | 89 | 1018.1 |
| 20260502065051 | 42 | 89 | 0.0 | 0.0 | 0.00 | 0.00 | 0.00 | 89 | 1018.0 |
| 20260502064541 | 42 | 89 | 0.0 | 0.0 | 0.00 | 0.00 | 0.00 | 89 | 1018.1 |
| 20260502064017 | 42 | 89 | 0.0 | 0.0 | 0.00 | 0.00 | 0.00 | 89 | 1018.1 |
| 20260502063446 | 42 | 89 | 0.0 | 0.0 | 0.00 | 0.00 | 0.00 | 89 | 1018.0 |
| 20260502062942 | 42 | 89 | 0.0 | 0.0 | 0.00 | 0.00 | 0.00 | 88 | 1018.0 |
| 20260502062439 | 42 | 89 | 0.0 | 0.0 | 0.00 | 0.00 | 0.00 | 87 | 1018.0 |
| 20260502061936 | 42 | 89 | 0.0 | 0.0 | 0.00 | 0.00 | 0.00 | 86 | 1018.0 |
| 20260502061432 | 43 | 89 | 0.0 | 0.0 | 0.00 | 0.00 | 0.00 | 86 | 1018.1 |
| 20260502061427 | 43 | 89 | 0.0 | 0.0 | 0.00 | 0.00 | 0.00 | 87 | 1018.0 |
| 20260502060403 | 43 | 89 | 0.0 | 0.0 | 0.00 | 0.00 | 0.00 | 86 | 1018.1 |
| 20260502055900 | 44 | 89 | 0.0 | 0.0 | 0.00 | 0.00 | 0.00 | 86 | 1018.2 |
| 20260502055825 | 44 | 89 | 0.0 | 0.0 | 0.00 | 0.00 | 0.00 | 86 | 1018.2 |
| 20260502054806 | 44 | 89 | 0.0 | 0.0 | 0.00 | 0.00 | 0.00 | 85 | 1018.0 |
| 20260502054300 | 44 | 89 | 0.0 | 0.0 | 0.00 | 0.00 | 0.00 | 85 | 1018.0 |
| 20260502053757 | 44 | 89 | 0.0 | 0.0 | 0.00 | 0.00 | 0.00 | 85 | 1018.1 |
| 20260502053232 | 44 | 89 | 0.0 | 0.0 | 0.00 | 0.00 | 0.00 | 84 | 1018.1 |
| 20260502053144 | 44 | 89 | 0.0 | 0.0 | 0.00 | 0.00 | 0.00 | 83 | 1018.0 |
| 20260502052638 | 44 | 89 | 0.0 | 0.0 | 0.00 | 0.00 | 0.00 | 82 | 1018.0 |
| 20260502051658 | 45 | 89 | 0.0 | 0.0 | 0.00 | 0.00 | 0.00 | 82 | 1018.2 |
| 20260502051152 | 45 | 89 | 0.0 | 0.0 | 0.00 | 0.00 | 0.00 | 82 | 1018.2 |
| 20260502050649 | 45 | 89 | 0.0 | 0.0 | 0.00 | 0.00 | 0.00 | 81 | 1018.3 |
| 20260502050147 | 45 | 89 | 0.0 | 0.0 | 0.00 | 0.00 | 0.00 | 82 | 1018.2 |
| 20260502045644 | 45 | 89 | 0.0 | 0.0 | 0.00 | 0.00 | 0.00 | 82 | 1018.2 |
| 20260502045117 | 46 | 89 | 0.0 | 0.0 | 0.00 | 0.00 | 0.00 | 81 | 1018.1 |
| 20260502044551 | 46 | 89 | 0.0 | 0.0 | 0.00 | 0.00 | 0.00 | 80 | 1018.2 |
| 20260502044516 | 46 | 89 | 0.0 | 0.0 | 0.00 | 0.00 | 0.00 | 80 | 1018.2 |
| 20260502043943 | 46 | 89 | 0.0 | 0.0 | 0.00 | 0.00 | 0.00 | 80 | 1018.2 |
| 20260502042932 | 46 | 89 | 0.0 | 0.0 | 0.00 | 0.00 | 0.00 | 78 | 1018.2 |
| 20260502042405 | 46 | 89 | 0.0 | 0.0 | 0.00 | 0.00 | 0.00 | 78 | 1018.1 |
| 20260502042318 | 47 | 89 | 0.0 | 0.0 | 0.00 | 0.00 | 0.00 | 78 | 1018.0 |
| 20260502041315 | 47 | 89 | 0.0 | 0.0 | 0.00 | 0.00 | 0.00 | 76 | 1018.2 |